CW6144 Weather Reports


Display with metric or nautical units.
time (UTC)temp
F
wind
direction
speed
MPH
gust
MPH
rain 1hr
in
rain 24hr
in
rain mn
in
humidity
%
barometer
mb
20260901141004 81 192 4.0 10.0 0.00 0.00 0.00 65 1022.0
20260901140507 81 168 4.0 8.0 0.00 0.00 0.00 65 1022.0
20260901140019 80 176 5.0 10.0 0.00 0.00 0.00 65 1022.0
20260901135507 80 188 4.0 10.0 0.00 0.00 0.00 66 1022.0
20260901135011 80 219 6.0 10.0 0.00 0.00 0.00 65 1022.0
20260901134525 80 262 5.0 9.0 0.00 0.00 0.00 66 1021.9
20260901134011 79 178 5.0 9.0 0.00 0.00 0.00 67 1022.0
20260901133509 79 234 3.0 9.0 0.00 0.00 0.00 68 1022.0
20260901133024 78 184 3.0 9.0 0.00 0.00 0.00 69 1021.9
20260901132512 78 196 3.0 8.0 0.00 0.00 0.00 68 1021.9
20260901132014 78 182 4.0 11.0 0.00 0.00 0.00 69 1021.9
20260901131527 78 184 6.0 11.0 0.00 0.00 0.00 69 1021.9
20260901131010 78 221 4.0 10.0 0.00 0.00 0.00 69 1021.8
20260901130504 77 166 3.0 7.0 0.00 0.00 0.00 70 1021.7
20260901130016 77 193 2.0 9.0 0.00 0.00 0.00 71 1021.6
20260901125508 77 190 3.0 9.0 0.00 0.00 0.00 71 1021.6
20260901125011 76 193 4.0 8.0 0.00 0.00 0.00 72 1021.6
20260901124517 76 229 3.0 10.0 0.00 0.00 0.00 72 1021.6
20260901124011 76 237 3.0 10.0 0.00 0.00 0.00 73 1021.5
20260901123512 76 223 3.0 6.0 0.00 0.00 0.00 74 1021.5
20260901123023 75 195 3.0 6.0 0.00 0.00 0.00 74 1021.4
20260901122515 75 174 3.0 6.0 0.00 0.00 0.00 74 1021.4
20260901122011 75 221 3.0 6.0 0.00 0.00 0.00 75 1021.4
20260901121535 75 242 3.0 5.0 0.00 0.00 0.00 75 1021.4
20260901121013 74 182 3.0 6.0 0.00 0.00 0.00 75 1021.3
20260901120511 74 184 3.0 6.0 0.00 0.00 0.00 75 1021.3
20260901120012 74 238 3.0 6.0 0.00 0.00 0.00 76 1021.2
20260901115505 74 202 2.0 6.0 0.00 0.00 0.00 76 1021.2
20260901115008 74 222 2.0 6.0 0.00 0.00 0.00 76 1021.2
20260901114522 74 190 3.0 6.0 0.00 0.00 0.00 76 1021.1
20260901114008 74 222 2.0 6.0 0.00 0.00 0.00 76 1021.1
20260901113512 74 187 1.0 5.0 0.00 0.00 0.00 76 1021.0
20260901113027 74 212 2.0 5.0 0.00 0.00 0.00 75 1020.9
20260901112503 74 212 2.0 6.0 0.00 0.00 0.00 75 1020.9
20260901112005 75 147 3.0 6.0 0.00 0.00 0.00 75 1020.9
20260901111510 75 213 3.0 6.0 0.00 0.00 0.00 75 1020.9
20260901111004 75 233 3.0 6.0 0.00 0.00 0.00 75 1020.9
20260901110504 75 263 2.0 6.0 0.00 0.00 0.00 74 1020.8
20260901110010 75 221 3.0 7.0 0.00 0.00 0.00 74 1020.8
20260901105506 75 207 2.0 7.0 0.00 0.00 0.00 74 1020.8
20260901105006 75 222 3.0 8.0 0.00 0.00 0.00 74 1020.7
20260901104531 75 236 3.0 8.0 0.00 0.00 0.00 75 1020.7
20260901104007 75 246 3.0 8.0 0.00 0.00 0.00 75 1020.7
20260901103510 74 221 3.0 8.0 0.00 0.00 0.00 76 1020.6
20260901103007 74 194 2.0 5.0 0.00 0.00 0.00 76 1020.6
20260901102502 74 224 3.0 5.0 0.00 0.00 0.00 76 1020.7
20260901102003 74 213 2.0 7.0 0.00 0.00 0.00 76 1020.6
20260901101510 74 248 3.0 7.0 0.00 0.00 0.00 77 1020.6
20260901101003 74 190 2.0 5.0 0.00 0.00 0.00 77 1020.6
20260901100503 74 198 2.0 5.0 0.00 0.00 0.00 77 1020.6
20260901100006 74 199 2.0 5.0 0.00 0.00 0.00 76 1020.6
20260901095504 74 196 2.0 5.0 0.00 0.00 0.00 76 1020.6
20260901095006 74 226 2.0 5.0 0.00 0.00 0.00 76 1020.6
20260901094521 74 159 2.0 4.0 0.00 0.00 0.00 76 1020.6
20260901094015 74 217 2.0 5.0 0.00 0.00 0.00 76 1020.6
20260901093507 74 184 2.0 6.0 0.00 0.00 0.00 76 1020.5
20260901093019 74 150 3.0 6.0 0.00 0.00 0.00 76 1020.5
20260901092511 74 217 2.0 5.0 0.00 0.00 0.00 76 1020.4
20260901092011 74 251 2.0 5.0 0.00 0.00 0.00 76 1020.4
20260901091533 74 205 2.0 5.0 0.00 0.00 0.00 76 1020.3
20260901091003 74 215 2.0 6.0 0.00 0.00 0.00 76 1020.3
20260901090503 74 166 2.0 6.0 0.00 0.00 0.00 76 1020.4
20260901090010 74 213 1.0 5.0 0.00 0.00 0.00 76 1020.4
20260901085502 74 215 2.0 5.0 0.00 0.00 0.00 76 1020.3
20260901085002 74 223 2.0 4.0 0.00 0.00 0.00 76 1020.3
20260901084512 74 214 2.0 4.0 0.00 0.00 0.00 76 1020.3
20260901084006 74 182 2.0 6.0 0.00 0.00 0.00 76 1020.3
20260901083507 74 202 1.0 6.0 0.00 0.00 0.00 75 1020.2
20260901083018 74 175 2.0 6.0 0.00 0.00 0.00 75 1020.2
20260901082509 74 210 2.0 6.0 0.00 0.00 0.00 75 1020.3
20260901082009 75 182 3.0 5.0 0.00 0.00 0.00 75 1020.3
20260901081525 75 236 2.0 6.0 0.00 0.00 0.00 75 1020.4
20260901081010 75 167 2.0 6.0 0.00 0.00 0.00 75 1020.3
20260901080513 75 178 2.0 5.0 0.00 0.00 0.00 75 1020.3
20260901080012 75 178 3.0 4.0 0.00 0.00 0.00 74 1020.3
20260901075503 75 192 1.0 5.0 0.00 0.00 0.00 74 1020.3
20260901075003 75 193 2.0 5.0 0.00 0.00 0.00 74 1020.2
20260901074508 75 180 2.0 5.0 0.00 0.00 0.00 73 1020.2
20260901074003 75 194 2.0 7.0 0.00 0.00 0.00 73 1020.2
20260901073503 75 205 3.0 6.0 0.00 0.00 0.00 73 1020.2
20260901073025 76 217 1.0 4.0 0.00 0.00 0.00 73 1020.3
20260901072508 76 194 2.0 5.0 0.00 0.00 0.00 72 1020.3
20260901072009 76 221 3.0 7.0 0.00 0.00 0.00 72 1020.2
20260901071524 76 196 2.0 7.0 0.00 0.00 0.00 72 1020.2
20260901071013 76 171 4.0 7.0 0.00 0.00 0.00 71 1020.2
20260901070512 76 180 3.0 6.0 0.00 0.00 0.00 71 1020.2
20260901070041 76 188 2.0 7.0 0.00 0.00 0.00 71 1020.2
20260901065518 76 169 2.0 7.0 0.00 0.00 0.00 71 1020.3
20260901065019 77 234 3.0 7.0 0.00 0.00 0.00 71 1020.2
20260901064509 77 188 4.0 7.0 0.00 0.00 0.00 70 1020.3
20260901064004 77 210 3.0 7.0 0.00 0.00 0.00 70 1020.3
20260901063506 77 238 2.0 8.0 0.00 0.00 0.00 70 1020.4
20260901063013 77 178 3.0 8.0 0.00 0.00 0.00 70 1020.4
20260901062506 77 230 4.0 8.0 0.00 0.00 0.00 70 1020.4
20260901062008 77 190 4.0 8.0 0.00 0.00 0.00 70 1020.4
20260901061518 77 164 3.0 8.0 0.00 0.00 0.00 70 1020.4
20260901061008 77 192 3.0 8.0 0.00 0.00 0.00 70 1020.4
20260901060511 77 188 4.0 8.0 0.00 0.00 0.00 70 1020.4
20260901060037 77 178 3.0 7.0 0.00 0.00 0.00 70 1020.4
20260901055511 77 178 3.0 9.0 0.00 0.00 0.00 69 1020.4
20260901055013 77 236 2.0 9.0 0.00 0.00 0.00 69 1020.4
20260901054527 77 254 3.0 9.0 0.00 0.00 0.00 69 1020.4
20260901054014 77 190 3.0 8.0 0.00 0.00 0.00 69 1020.4
20260901053516 77 171 3.0 9.0 0.00 0.00 0.00 68 1020.3
20260901053012 77 195 4.0 8.0 0.00 0.00 0.00 68 1020.3
20260901052506 78 221 3.0 7.0 0.00 0.00 0.00 68 1020.3
20260901052005 78 204 3.0 8.0 0.00 0.00 0.00 68 1020.3
20260901051518 78 165 4.0 8.0 0.00 0.00 0.00 68 1020.3
20260901051008 78 139 3.0 9.0 0.00 0.00 0.00 67 1020.3
20260901050512 78 171 4.0 9.0 0.00 0.00 0.00 67 1020.3
20260901050022 78 186 4.0 8.0 0.00 0.00 0.00 67 1020.3
20260901045514 78 124 3.0 8.0 0.00 0.00 0.00 66 1020.3
20260901045012 78 207 3.0 7.0 0.00 0.00 0.00 66 1020.3
20260901044527 78 216 2.0 7.0 0.00 0.00 0.00 65 1020.3
20260901044015 78 192 3.0 7.0 0.00 0.00 0.00 65 1020.3
20260901043514 79 171 3.0 7.0 0.00 0.00 0.00 65 1020.3
20260901043033 79 184 3.0 6.0 0.00 0.00 0.00 64 1020.2
20260901042517 79 174 3.0 8.0 0.00 0.00 0.00 64 1020.3
20260901042006 79 196 3.0 8.0 0.00 0.00 0.00 64 1020.3
20260901041514 79 183 3.0 7.0 0.00 0.00 0.00 63 1020.3
20260901041005 79 211 3.0 7.0 0.00 0.00 0.00 63 1020.3
20260901040508 79 166 3.0 8.0 0.00 0.00 0.00 63 1020.2
20260901040023 79 208 3.0 8.0 0.00 0.00 0.00 63 1020.3
20260901035512 79 201 3.0 8.0 0.00 0.00 0.00 62 1020.2
20260901035011 79 226 2.0 8.0 0.00 0.00 0.00 62 1020.2
20260901034528 79 145 2.0 7.0 0.00 0.00 0.00 62 1020.2
20260901034013 79 229 3.0 6.0 0.00 0.00 0.00 61 1020.2
20260901033514 79 210 2.0 6.0 0.00 0.00 0.00 61 1020.3
20260901033037 79 159 3.0 8.0 0.00 0.00 0.00 60 1020.3
20260901032515 79 198 2.0 8.0 0.00 0.00 0.00 60 1020.3
20260901032016 79 165 2.0 6.0 0.00 0.00 0.00 59 1020.3
20260901031539 79 207 3.0 6.0 0.00 0.00 0.00 59 1020.3
20260901031017 79 205 3.0 9.0 0.00 0.00 0.00 59 1020.2
20260901030510 79 195 3.0 9.0 0.00 0.00 0.00 59 1020.2
20260901030014 79 169 3.0 8.0 0.00 0.00 0.00 59 1020.3
20260901025507 79 180 4.0 8.0 0.00 0.00 0.00 59 1020.3
20260901025011 79 146 1.0 4.0 0.00 0.00 0.00 59 1020.2
20260901024524 79 222 2.0 4.0 0.00 0.00 0.00 59 1020.2
20260901024011 79 144 2.0 5.0 0.00 0.00 0.00 59 1020.1
20260901023512 79 185 2.0 6.0 0.00 0.00 0.00 58 1020.1
20260901023028 79 188 2.0 5.0 0.00 0.00 0.00 58 1020.0
20260901022515 79 186 1.0 4.0 0.00 0.00 0.00 56 1020.0
20260901022016 80 222 1.0 3.0 0.00 0.00 0.00 56 1019.9
20260901021545 80 117 0.0 2.0 0.00 0.00 0.00 55 1019.8
20260901021016 80 229 0.0 4.0 0.00 0.00 0.00 54 1019.8
20260901020522 80 225 0.0 4.0 0.00 0.00 0.00 54 1019.8
20260901020030 81 153 0.0 6.0 0.00 0.00 0.00 54 1019.8
20260901015518 81 191 2.0 6.0 0.00 0.00 0.00 54 1019.7
20260901015007 81 188 2.0 6.0 0.00 0.00 0.00 53 1019.6
20260901014518 81 165 3.0 6.0 0.00 0.00 0.00 53 1019.5
20260901014008 81 174 2.0 6.0 0.00 0.00 0.00 54 1019.5
20260901013519 81 175 2.0 5.0 0.00 0.00 0.00 53 1019.5
20260901013032 81 202 2.0 5.0 0.00 0.00 0.00 53 1019.5
20260901012520 81 219 2.0 6.0 0.00 0.00 0.00 54 1019.4
20260901012017 82 215 2.0 6.0 0.00 0.00 0.00 54 1019.3
20260901011529 82 223 2.0 5.0 0.00 0.00 0.00 53 1019.3
20260901011013 82 215 1.0 5.0 0.00 0.00 0.00 54 1019.2
20260901010505 83 181 2.0 5.0 0.00 0.00 0.00 54 1019.2
20260901010033 83 211 1.0 4.0 0.00 0.00 0.00 54 1019.3
20260901005506 83 171 2.0 4.0 0.00 0.00 0.00 54 1019.2
20260901005006 84 207 1.0 2.0 0.00 0.00 0.00 53 1019.1
20260901004524 84 206 1.0 4.0 0.00 0.00 0.00 52 1019.1
20260901004010 85 160 1.0 4.0 0.00 0.00 0.00 52 1019.1
20260901003512 85 193 0.0 5.0 0.00 0.00 0.00 52 1019.1
20260901003028 85 196 2.0 5.0 0.00 0.00 0.00 51 1019.0
20260901002504 86 111 1.0 6.0 0.00 0.00 0.00 50 1019.0
20260901002005 86 144 2.0 6.0 0.00 0.00 0.00 50 1018.9
20260901001504 86 143 2.0 7.0 0.00 0.00 0.00 49 1018.9
20260901001004 87 131 2.0 7.0 0.00 0.00 0.00 49 1018.9
20260901000512 87 169 1.0 11.0 0.00 0.00 0.00 48 1018.9
20260901000008 88 146 3.0 11.0 0.00 0.00 0.00 47 1018.9
20260831235518 88 207 2.0 8.0 0.00 0.00 0.00 47 1018.9
20260831235004 88 185 3.0 7.0 0.00 0.00 0.00 46 1018.8
20260831234516 89 158 3.0 8.0 0.00 0.00 0.00 46 1018.8
20260831234020 89 180 4.0 8.0 0.00 0.00 0.00 45 1018.8
20260831233507 90 117 3.0 11.0 0.00 0.00 0.00 45 1018.9
20260831233024 90 247 4.0 11.0 0.00 0.00 0.00 44 1018.9
20260831232515 91 122 3.0 7.0 0.00 0.00 0.00 43 1018.9
20260831232015 91 169 2.0 9.0 0.00 0.00 0.00 42 1018.8
20260831231529 92 186 4.0 9.0 0.00 0.00 0.00 41 1018.8
20260831231003 92 180 3.0 8.0 0.00 0.00 0.00 40 1018.9
20260831230504 92 226 1.0 7.0 0.00 0.00 0.00 39 1018.9
20260831230007 93 130 2.0 7.0 0.00 0.00 0.00 38 1018.9
20260831225503 93 178 4.0 7.0 0.00 0.00 0.00 39 1018.9
20260831225005 93 138 3.0 8.0 0.00 0.00 0.00 38 1018.9
20260831224514 93 70 3.0 8.0 0.00 0.00 0.00 39 1018.8
20260831224007 93 41 1.0 7.0 0.00 0.00 0.00 38 1018.9
20260831223506 93 74 3.0 7.0 0.00 0.00 0.00 39 1018.8
20260831223029 92 123 2.0 12.0 0.00 0.00 0.00 39 1018.8
20260831222512 92 113 6.0 12.0 0.00 0.00 0.00 39 1018.9
20260831222012 93 138 6.0 9.0 0.00 0.00 0.00 39 1019.0
20260831221524 93 101 5.0 9.0 0.00 0.00 0.00 38 1019.0
20260831221012 93 65 2.0 7.0 0.00 0.00 0.00 38 1019.0
20260831220512 93 82 3.0 10.0 0.00 0.00 0.00 38 1019.0
20260831220027 93 137 4.0 10.0 0.00 0.00 0.00 38 1019.0
20260831215506 94 10 1.0 10.0 0.00 0.00 0.00 37 1019.0
20260831215004 93 115 5.0 10.0 0.00 0.00 0.00 36 1019.0
20260831214510 94 122 2.0 10.0 0.00 0.00 0.00 36 1019.0
20260831214004 94 63 3.0 7.0 0.00 0.00 0.00 37 1019.0
20260831213508 93 53 2.0 8.0 0.00 0.00 0.00 1018.9
20260831213021 93 157 4.0 8.0 0.00 0.00 0.00 38 1019.0
20260831212509 93 155 1.0 9.0 0.00 0.00 0.00 38 1018.9
20260831212012 93 49 4.0 9.0 0.00 0.00 0.00 37 1019.0
20260831211525 93 65 3.0 9.0 0.00 0.00 0.00 37 1019.0
20260831211012 93 169 1.0 11.0 0.00 0.00 0.00 37 1019.1
20260831210513 93 92 2.0 11.0 0.00 0.00 0.00 38 1019.2
20260831210027 93 111 1.0 4.0 0.00 0.00 0.00 38 1019.1
20260831205519 93 93 1.0 10.0 0.00 0.00 0.00 38 1019.2
20260831205017 94 119 2.0 10.0 0.00 0.00 0.00 1019.3
20260831204509 95 169 4.0 8.0 0.00 0.00 0.00 1019.3
20260831204004 95 178 2.0 10.0 0.00 0.00 0.00 36 1019.3
20260831203504 95 165 3.0 9.0 0.00 0.00 0.00 36 1019.3
20260831203014 95 144 3.0 8.0 0.00 0.00 0.00 36 1019.5
20260831202507 94 182 2.0 10.0 0.00 0.00 0.00 39 1019.4
20260831202007 93 179 5.0 10.0 0.00 0.00 0.00 39 1019.6
20260831201532 93 262 2.0 9.0 0.00 0.00 0.00 39 1019.7
20260831201011 93 217 3.0 9.0 0.00 0.00 0.00 40 1019.8
20260831200509 92 119 3.0 9.0 0.00 0.00 0.00 40 1019.8
20260831200025 92 175 3.0 7.0 0.00 0.00 0.00 41 1020.0
20260831195513 92 238 1.0 10.0 0.00 0.00 0.00 41 1020.1
20260831195014 92 53 2.0 10.0 0.00 0.00 0.00 42 1020.0
20260831194555 91 186 5.0 9.0 0.00 0.00 0.00 43 1020.1
20260831194016 91 136 3.0 9.0 0.00 0.00 0.00 42 1020.2
20260831193515 91 196 2.0 5.0 0.00 0.00 0.00 43 1020.2
20260831193011 91 130 1.0 5.0 0.00 0.00 0.00 43 1020.3
20260831192506 90 134 2.0 9.0 0.00 0.00 0.00 43 1020.3
20260831192006 91 106 2.0 9.0 0.00 0.00 0.00 42 1020.3
20260831191518 92 81 3.0 8.0 0.00 0.00 0.00 42 1020.3
20260831191008 92 320 1.0 9.0 0.00 0.00 0.00 41 1020.4
20260831190508 92 183 3.0 9.0 0.00 0.00 0.00 41 1020.4
20260831190032 92 196 3.0 6.0 0.00 0.00 0.00 41 1020.5
20260831185512 92 134 1.0 7.0 0.00 0.00 0.00 43 1020.5
20260831185014 92 105 1.0 7.0 0.00 0.00 0.00 41 1020.6
20260831184531 93 130 2.0 9.0 0.00 0.00 0.00 41 1020.5
20260831184017 93 156 4.0 9.0 0.00 0.00 0.00 40 1020.6
20260831183516 92 81 4.0 9.0 0.00 0.00 0.00 41 1020.7
20260831183029 94 70 6.0 9.0 0.00 0.00 0.00 39 1020.8
20260831182517 95 94 2.0 7.0 0.00 0.00 0.00 39 1020.8
20260831182017 95 190 4.0 11.0 0.00 0.00 0.00 40 1020.9
20260831181516 94 119 4.0 11.0 0.00 0.00 0.00 39 1020.9
20260831181009 94 190 3.0 9.0 0.00 0.00 0.00 43 1020.9
20260831180508 93 198 4.0 9.0 0.00 0.00 0.00 42 1021.1
20260831180022 94 173 5.0 9.0 0.00 0.00 0.00 42 1021.1
20260831175509 94 193 4.0 11.0 0.00 0.00 0.00 43 1021.2
20260831175010 94 135 6.0 11.0 0.00 0.00 0.00 43 1021.2
20260831174535 93 223 4.0 10.0 0.00 0.00 0.00 44 1021.3
20260831174014 93 215 4.0 10.0 0.00 0.00 0.00 44 1021.4
20260831173515 92 111 5.0 10.0 0.00 0.00 0.00 45 1021.5
20260831173029 92 161 3.0 9.0 0.00 0.00 0.00 46 1021.4
20260831172517 91 210 4.0 11.0 0.00 0.00 0.00 47 1021.6
20260831172018 91 293 4.0 10.0 0.00 0.00 0.00 46 1021.7
20260831171535 91 115 4.0 10.0 0.00 0.00 0.00 47 1021.6
20260831171021 90 180 5.0 10.0 0.00 0.00 0.00 48 1021.7
20260831170519 89 128 1.0 7.0 0.00 0.00 0.00 50 1021.7
20260831170016 89 261 3.0 8.0 0.00 0.00 0.00 49 1021.7
20260831165507 89 192 3.0 9.0 0.00 0.00 0.00 48 1021.7
20260831165009 90 170 5.0 9.0 0.00 0.00 0.00 47 1021.7
20260831164526 90 138 4.0 10.0 0.00 0.00 0.00 49 1021.7
20260831164014 90 189 4.0 10.0 0.00 0.00 0.00 49 1021.8
20260831163515 89 140 5.0 8.0 0.00 0.00 0.00 49 1021.8
20260831163030 89 182 5.0 8.0 0.00 0.00 0.00 49 1021.9
20260831162514 89 222 4.0 8.0 0.00 0.00 0.00 50 1021.8
20260831162016 89 207 4.0 9.0 0.00 0.00 0.00 51 1021.9
20260831161533 88 175 5.0 9.0 0.00 0.00 0.00 51 1021.9
20260831161014 88 197 2.0 9.0 0.00 0.00 0.00 52 1021.8
20260831160506 87 229 5.0 9.0 0.00 0.00 0.00 52 1021.9
20260831160018 87 206 4.0 9.0 0.00 0.00 0.00 54 1021.9
20260831155507 87 209 5.0 9.0 0.00 0.00 0.00 52 1021.9
20260831155024 87 231 5.0 9.0 0.00 0.00 0.00 53 1021.9
20260831154552 86 175 5.0 9.0 0.00 0.00 0.00 53 1021.9
20260831154007 86 191 5.0 8.0 0.00 0.00 0.00 54 1021.8
20260831153503 85 172 4.0 10.0 0.00 0.00 0.00 55 1021.7
20260831153006 84 165 3.0 10.0 0.00 0.00 0.00 58 1021.7
20260831152503 83 176 5.0 9.0 0.00 0.00 0.00 57 1021.7
20260831152004 83 208 4.0 10.0 0.00 0.00 0.00 57 1021.7
20260831151509 83 175 5.0 10.0 0.00 0.00 0.00 57 1021.7
20260831151005 83 168 4.0 10.0 0.00 0.00 0.00 57 1021.7
20260831150504 83 241 3.0 10.0 0.00 0.00 0.00 56 1021.7
20260831150015 83 163 4.0 9.0 0.00 0.00 0.00 57 1021.6
20260831145509 83 182 3.0 11.0 0.00 0.00 0.00 58 1021.5
20260831145010 82 165 6.0 11.0 0.00 0.00 0.00 57 1021.5
20260831144519 82 190 4.0 9.0 0.00 0.00 0.00 58 1021.5
20260831144011 82 208 5.0 10.0 0.00 0.00 0.00 58 1021.5
20260831143512 81 190 4.0 10.0 0.00 0.00 0.00 59 1021.4
20260831143027 81 205 5.0 10.0 0.00 0.00 0.00 59 1021.4
20260831142513 81 227 5.0 10.0 0.00 0.00 0.00 60 1021.4
20260831142003 80 208 6.0 12.0 0.00 0.00 0.00 61 1021.4
20260831141507 80 160 6.0 13.0 0.00 0.00 0.00 61 1021.5